Eagle, AK

4:17 AM AKDT on July 29, 2017 (GMT -0800)
Eagle

Weather History for PAEG - November, 2011

Change the Weather History Date:

Monday, November 7, 2011

  Actual Average (PABN) Record (PABN)
Temperature  
Mean Temperature 14 °F -  
Max Temperature 21 °F 13 °F 33 °F (1996)
Min Temperature 8 °F 5 °F -18 °F (2006)
Degree Days  
Heating Degree Days 50    
Moisture  
Dew Point 7 °F    
Average Humidity 80    
Maximum Humidity 87    
Minimum Humidity 73    
Precipitation  
Precipitation 0.04 in - - ()
Sea Level Pressure  
Sea Level Pressure 29.60 in    
Wind  
Wind Speed 1 mph (NNW)    
Max Wind Speed 8 mph    
Max Gust Speed -    
Visibility 4 miles    
Events Snow    
Averages and records for this station are not official NWS values.
T = Trace of Precipitation, MM = Missing Value Source: NWS Daily Summary

Daily Weather History Graph

Daily Weather History Graph

Search for Another Location

Airport or City:

Trip Planner

Search our weather history database for the weather conditions in past years. The results will help you decide how hot, cold, wet, or windy it might be!

Date:

Astronomy

Nov. 07, 2011 Rise Set
Actual Time 8:31 AM AKST 3:43 PM AKST
Civil Twilight 7:33 AM AKST 4:41 PM AKST
Nautical Twilight 6:34 AM AKST 5:41 PM AKST
Astronomical Twilight 5:37 AM AKST 6:38 PM AKST
Moon 2:37 PM AKST (11/7) 4:55 AM AKST (11/7)
Length of Visible Light 9h 07m
Length of Day
7h 12m
Waxing Gibbous, 92% of the Moon is Illuminated
Nov 7
Waxing Gibbous
Nov 10
Full
Nov 18
Last Quarter
Nov 24
New
Dec 2
First Quarter

Hourly Weather History & Observations

Time (AKST) Temp. Windchill Dew Point Humidity Pressure Visibility Wind Dir Wind Speed Gust Speed Precip Events Conditions
12:53 AM 12.9 °F - 8.1 °F 81% 29.29 in 10.0 mi Calm Calm - N/A   Clear
1:53 AM 10.0 °F 3.6 °F 7.0 °F 87% 29.31 in 10.0 mi Variable 3.5 mph - N/A   Partly Cloudy
3:53 AM 21.9 °F 12.5 °F 15.1 °F 75% 29.33 in 10.0 mi ESE 8.1 mph - N/A   Overcast
4:53 AM 16.0 °F - 10.9 °F 81% 29.37 in 10.0 mi Calm Calm - N/A   Partly Cloudy
5:53 AM 12.9 °F 6.9 °F 8.1 °F 81% 29.41 in 10.0 mi NNW 3.5 mph - N/A   Clear
6:53 AM 10.0 °F - 3.9 °F 76% 29.45 in 10.0 mi Calm Calm - N/A   Partly Cloudy
7:10 AM 8.6 °F - 3.2 °F 79% 29.41 in 10.0 mi Calm Calm - N/A   Mostly Cloudy
7:53 AM 9.0 °F - 3.0 °F 77% 29.49 in 10.0 mi Calm Calm - N/A   Overcast
8:53 AM 10.0 °F - 3.9 °F 76% 29.52 in 10.0 mi Calm Calm - N/A   Overcast
9:53 AM 10.0 °F 3.6 °F 3.0 °F 73% 29.55 in 10.0 mi West 3.5 mph - N/A   Overcast
10:48 AM 10.4 °F - 5.0 °F 79% 29.51 in 1.8 mi Calm Calm - 0.00 in Snow Light Snow
10:49 AM 10.9 °F - 5.0 °F 77% 29.57 in 1.5 mi Calm Calm - 0.00 in Snow Light Snow
11:08 AM 10.4 °F - 6.8 °F 85% 29.53 in 0.8 mi Calm Calm - 0.00 in Snow Light Snow
11:43 AM 12.2 °F - 6.8 °F 79% 29.54 in 1.0 mi Calm Calm - 0.00 in Snow Light Snow
11:53 AM 12.0 °F - 6.1 °F 77% 29.60 in 1.5 mi Calm Calm - 0.00 in Snow Light Snow
12:10 PM 12.2 °F - 6.8 °F 79% 29.55 in 2.0 mi Calm Calm - 0.00 in Snow Light Snow
12:42 PM 12.2 °F - 6.8 °F 79% 29.56 in 3.0 mi Calm Calm - 0.00 in Snow Light Snow
12:53 PM 12.9 °F - 7.0 °F 77% 29.61 in 4.0 mi Calm Calm - 0.00 in Snow Light Snow
1:53 PM 12.9 °F 6.9 °F 7.0 °F 77% 29.62 in 4.0 mi NNE 3.5 mph - 0.00 in Snow Light Snow
2:53 PM 12.9 °F - 7.0 °F 77% 29.64 in 7.0 mi Calm Calm - 0.00 in Snow Light Snow
3:53 PM 14.0 °F - 7.0 °F 74% 29.65 in 4.0 mi Calm Calm - 0.00 in Snow Light Snow
4:53 PM 12.9 °F - 8.1 °F 81% 29.67 in 3.0 mi Calm Calm - 0.00 in Snow Light Snow
5:50 PM 12.2 °F - 8.6 °F 85% 29.63 in 2.5 mi Calm Calm - 0.00 in Snow Light Snow
5:53 PM 12.9 °F - 8.1 °F 81% 29.69 in 2.5 mi Calm Calm - 0.00 in Snow Light Snow
6:24 PM 12.2 °F - 8.6 °F 85% 29.64 in 1.8 mi Calm Calm - 0.00 in Snow Light Snow
6:53 PM 12.0 °F - 8.1 °F 84% 29.72 in 1.2 mi Calm Calm - 0.01 in Snow Light Snow
7:26 PM 12.2 °F - 6.8 °F 79% 29.67 in 2.0 mi Calm Calm - 0.00 in Snow Light Snow
7:39 PM 12.2 °F - 8.6 °F 85% 29.67 in 3.0 mi Calm Calm - 0.00 in Snow Light Snow
7:53 PM 12.9 °F - 7.0 °F 77% 29.74 in 3.0 mi Calm Calm - 0.00 in Snow Light Snow
7:59 PM 12.2 °F - 6.8 °F 79% 29.68 in 2.5 mi Calm Calm - 0.01 in Snow Light Snow
8:25 PM 12.2 °F - 6.8 °F 79% 29.70 in 3.0 mi Calm Calm - 0.01 in Snow Light Snow
8:43 PM 12.2 °F 2.9 °F 6.8 °F 79% 29.70 in 2.0 mi NW 5.8 mph - 0.01 in Snow Light Snow
8:53 PM 12.9 °F - 8.1 °F 81% 29.76 in 1.8 mi Calm Calm - 0.01 in Snow Light Snow
9:06 PM 12.2 °F 4.3 °F 8.6 °F 85% 29.71 in 2.0 mi North 4.6 mph - 0.00 in Snow Light Snow
9:23 PM 12.2 °F - 6.8 °F 79% 29.71 in 1.8 mi Calm Calm - 0.00 in Snow Light Snow
9:53 PM 12.0 °F 5.9 °F 7.0 °F 80% 29.79 in 1.8 mi North 3.5 mph - 0.00 in Snow Light Snow
10:26 PM 12.2 °F 6.1 °F 6.8 °F 79% 29.74 in 2.0 mi North 3.5 mph - 0.00 in Snow Light Snow
10:34 PM 12.2 °F 6.1 °F 6.8 °F 79% 29.75 in 1.8 mi North 3.5 mph - 0.00 in Snow Light Snow
10:53 PM 12.0 °F 4.1 °F 7.0 °F 80% 29.81 in 1.5 mi WNW 4.6 mph - 0.01 in Snow Light Snow
11:53 PM 12.0 °F 2.7 °F 7.0 °F 80% 29.85 in 1.2 mi NW 5.8 mph - 0.01 in Snow Light Snow